Hourly Data Report for December 13, 2006

TORONTO CITY
ONTARIO

43°40'00.000" N
79°24'00.000" W
112.50 m
6158355
71508
XTO

Download Data

Hourly Data (December 2006)
Hourly Data Report for December 13, 2006
TIME
LST
Temp Definition
°C
Dew Point Definition
°C
Rel Hum Definition
%
Precip. Amount Definition
mm

Wind Dir Definition
10's deg

Wind Spd Definition
km/h
Visibility Definition
km
Stn Press Definition
kPa
Hmdx Definition


Wind Chill Definition


Weather Definition


00:00 10.0 4.4 68   LegendMM LegendMM   100.43     LegendNANA
01:00 9.6 3.6 66   LegendMM LegendMM   100.40     LegendNANA
02:00 8.3 4.5 77   LegendMM LegendMM   100.45     LegendNANA
03:00 7.8 5.1 83   LegendMM LegendMM   100.40     LegendNANA
04:00 7.4 5.5 88   LegendMM LegendMM   100.32     LegendNANA
05:00 7.6 5.3 85   LegendMM LegendMM   100.25     LegendNANA
06:00 7.5 5.6 88   LegendMM LegendMM   100.18     LegendNANA
07:00 7.8 5.4 85   LegendMM LegendMM   100.17     LegendNANA
08:00 7.9 5.6 85   LegendMM LegendMM   100.13     LegendNANA
09:00 7.8 5.8 87   LegendMM LegendMM   100.10     LegendNANA
10:00 8.5 5.9 84   LegendMM LegendMM   100.08     LegendNANA
11:00 8.8 6.0 83   LegendMM LegendMM   100.04     LegendNANA
12:00 8.9 6.1 83   LegendMM LegendMM   99.96     LegendNANA
13:00 8.7 5.4 80   LegendMM LegendMM   99.88     LegendNANA
14:00 9.3 3.2 66   LegendMM LegendMM   99.86     LegendNANA
15:00 8.2 3.0 70   LegendMM LegendMM   99.92     LegendNANA
16:00 7.7 2.8 71   LegendMM LegendMM   99.94     LegendNANA
17:00 7.0 2.3 72   LegendMM LegendMM   99.99     LegendNANA
18:00 6.4 2.5 76   LegendMM LegendMM   100.02     LegendNANA
19:00 6.1 1.7 73   LegendMM LegendMM   100.07     LegendNANA
20:00 5.8 1.2 72   LegendMM LegendMM   100.08     LegendNANA
21:00 5.4 0.6 71   LegendMM LegendMM   100.03     LegendNANA
22:00 4.6 0.5 75   LegendMM LegendMM   100.04     LegendNANA
23:00 3.8 0.6 80   LegendMM LegendMM   100.02     LegendNANA

Notes on Data Quality.

Legend

  • E = Estimated
  • M = Missing
  • NA = Not Available*
  • [empty] = Indicates an unobserved value
Date modified: